HODOYOSHI 3

Satellite information

Favourite Embed

Satellite Type and Status

PAYLOADIN ORBIT

Key statistics

Satellite HODOYOSHI 3 at a glance.

Uptime

4199

Days in orbit

Revolutions

≈ 14.8

Per day

Orbit

SSO

Sun Synchronous Orbit

Inclination

97.6

Latest

Satellite identification and parameters

Extended collection of information and parameters for HODOYOSHI 3.

Object identification

Identified? True

Debris? False

Object name: HODOYOSHI 3

International designator: 2014-033F

Object number (NORAD): 40015

Object ID (CCSDS): 40015

Country: JAPAN (JPN)

Current information (Y/N): Y

RCS size: MEDIUM

Orbital parameters

Period: 96.981 minutes

Inclination: 97.6202 deg

SMA: 6992.283 km

Apoapsis: 636.561 km

Periapsis: 591.735 km

RAAN: 156.5881 deg

Eccentricy: 0.0032054

Argument of periapsis: 233.5945 deg

Mean anomaly: 126.2313 deg

Mean motion: 14.8482146 rev/day

Mean motion (dot): 0.0000155 rev/day2

B* drag term: 0.00018706939 1/REarth

Two-line elements (TLE)

Creation date: Dec. 17, 2025, 2:25 a.m.

Reference frame: TEME

Reference center: EARTH

Epoch: Dec. 16, 2025, 10:27 p.m. UTC

TLE line 0: 0 HODOYOSHI 3

TLE line 1: 1 40015U 14033F 25350.93550319 .00001550 00000-0 18707-3 0 9998

TLE line 2: 2 40015 97.6202 156.5881 0032054 233.5945 126.2313 14.84821460620573

Live tracking on map

Real-time ground track for satellite HODOYOSHI 3.

In-orbit conjunctions

There are no conjunctions computed for HODOYOSHI 3, at the moment. Check back to stay up to date, as we update our databases every day.

Go to all conjunctions

Associated space launch

HODOYOSHI 3 was lifted into orbit during the mission ‘Dnepr 1 | Multipayload, 37 satellites.’, on board a Dnepr space rocket.

The launch took place on June 19, 2014, 7:11 p.m. from 370/13.

For more information about the launch, click the button.

Launch to space Dnepr 1 | Multipayload, 37 satellites.
Dnepr 1 | Multipayload, 37 satellites.

Agency: N/A

Status: Launch Successful

Launch date: June 19, 2014, 7:11 p.m. UTC

Rocket: Dnepr

Launch pad: 370/13

Location: Dombarovskiy, Russian Federation

...

Latest news about this satellite

There are no fresh news available about this satellite. Check back as we update our databases every day.


Newsletter sign-up

Weekly statistics, charts and insights to help you stay on top of the space industry.